• In Uzbekistan
  • List of Countries
  • For 7 days
  • Water Temperature
  • Satellite Maps
  • Weather Map
  • Weather Widgets
  • user-avatar
    Login

    Hourly Weather Bregenz

    Today, 16 December, Saturday

    Time Temperature Precipitation Wind Pressure Humidity
    00:00 -10°C° 0 mm 2 mps 632 mmHg 83%
    01:00 -9°C° 0 mm 2 mps 632 mmHg 81%
    02:00 -9°C° 0.1 mm 2 mps 633 mmHg 83%
    03:00 -9°C° 0.1 mm 2 mps 633 mmHg 85%
    04:00 -9°C° 0.1 mm 2 mps 633 mmHg 87%
    05:00 -8°C° 0.4 mm 2 mps 634 mmHg 88%
    06:00 -8°C° 0.4 mm 2 mps 634 mmHg 89%
    07:00 -7°C° 0 mm 2 mps 635 mmHg 91%
    08:00 -6°C° 0.3 mm 2 mps 636 mmHg 91%
    09:00 -6°C° 0.3 mm 2 mps 636 mmHg 90%
    10:00 -6°C° 0.3 mm 2 mps 637 mmHg 90%
    11:00 -5°C° 0.5 mm 2 mps 637 mmHg 91%
    12:00 -5°C° 0.5 mm 2 mps 638 mmHg 91%
    13:00 -6°C° 0 mm 3 mps 638 mmHg 93%
    14:00 -5°C° 0.9 mm 2 mps 639 mmHg 93%
    15:00 -5°C° 0.9 mm 2 mps 639 mmHg 94%
    16:00 -6°C° 0.9 mm 2 mps 640 mmHg 95%
    17:00 -6°C° 0.8 mm 2 mps 640 mmHg 95%
    18:00 -6°C° 0.8 mm 2 mps 641 mmHg 96%
    19:00 -7°C° 0.8 mm 2 mps 641 mmHg 96%
    20:00 -7°C° 0.5 mm 2 mps 642 mmHg 96%
    21:00 -7°C° 0.5 mm 2 mps 642 mmHg 96%
    22:00 -7°C° 0.5 mm 2 mps 643 mmHg 96%
    23:00 -7°C° 0.4 mm 2 mps 643 mmHg 96%

    Tomorrow, 17 December, Sunday

    Time Temperature Precipitation Wind Pressure Humidity
    00:00 -7°C° 0.4 mm 2 mps 643 mmHg 96%
    01:00 -8°C° 0.4 mm 2 mps 644 mmHg 96%
    02:00 -8°C° 0.4 mm 2 mps 644 mmHg 96%
    03:00 -8°C° 0.4 mm 2 mps 644 mmHg 96%
    04:00 -8°C° 0.4 mm 2 mps 644 mmHg 95%
    05:00 -8°C° 0.5 mm 2 mps 644 mmHg 95%
    06:00 -8°C° 0.5 mm 2 mps 645 mmHg 95%
    07:00 -8°C° 0.5 mm 2 mps 645 mmHg 95%
    08:00 -8°C° 0.3 mm 2 mps 645 mmHg 94%
    09:00 -8°C° 0.3 mm 2 mps 646 mmHg 93%
    10:00 -8°C° 0.3 mm 2 mps 646 mmHg 92%
    11:00 -7°C° 0.1 mm 2 mps 646 mmHg 90%
    12:00 -7°C° 0.1 mm 2 mps 646 mmHg 88%
    13:00 -6°C° 0.1 mm 2 mps 647 mmHg 86%
    14:00 -7°C° 0 mm 2 mps 647 mmHg 87%
    15:00 -8°C° 0 mm 2 mps 647 mmHg 89%
    16:00 -7°C° 0 mm 1 mps 647 mmHg 91%
    17:00 -8°C° 0 mm 1 mps 647 mmHg 91%
    18:00 -10°C° 0 mm 2 mps 648 mmHg 91%
    19:00 -12°C° 0 mm 2 mps 648 mmHg 91%
    20:00 -12°C° 0 mm 2 mps 648 mmHg 90%
    21:00 -13°C° 0 mm 2 mps 648 mmHg 89%
    22:00 -13°C° 0 mm 2 mps 649 mmHg 88%
    23:00 -13°C° 0 mm 2 mps 648 mmHg 87%

    Day after tomorrow, 18 December, Monday

    Time Temperature Precipitation Wind Pressure Humidity
    00:00 -14°C° 0 mm 2 mps 648 mmHg 86%
    01:00 -14°C° 0 mm 2 mps 648 mmHg 86%
    02:00 -14°C° 0 mm 2 mps 648 mmHg 85%
    03:00 -13°C° 0 mm 2 mps 648 mmHg 84%
    04:00 -13°C° 0 mm 2 mps 648 mmHg 83%
    05:00 -12°C° 0 mm 2 mps 648 mmHg 82%
    06:00 -12°C° 0 mm 3 mps 648 mmHg 81%
    07:00 -10°C° 0 mm 3 mps 648 mmHg 81%
    08:00 -10°C° 0.4 mm 3 mps 647 mmHg 84%
    09:00 -9°C° 0.4 mm 3 mps 647 mmHg 88%
    10:00 -8°C° 0.4 mm 3 mps 646 mmHg 91%
    11:00 -6°C° 1.1 mm 2 mps 646 mmHg 93%
    12:00 -6°C° 1.1 mm 2 mps 646 mmHg 94%
    13:00 -5°C° 1.1 mm 2 mps 645 mmHg 95%
    14:00 -5°C° 1.2 mm 2 mps 646 mmHg 96%
    15:00 -5°C° 1.2 mm 2 mps 646 mmHg 97%
    16:00 -5°C° 1.2 mm 2 mps 646 mmHg 97%
    17:00 -3°C° 0.8 mm 1 mps 646 mmHg 97%
    18:00 -3°C° 0.8 mm 1 mps 647 mmHg 97%
    19:00 -3°C° 0.8 mm 1 mps 648 mmHg 97%
    20:00 -3°C° 0.3 mm 1 mps 648 mmHg 97%
    21:00 -4°C° 0.3 mm 1 mps 649 mmHg 97%
    22:00 -4°C° 0.3 mm 1 mps 649 mmHg 97%
    23:00 -4°C° 0.1 mm 1 mps 650 mmHg 97%

    19 December, Tuesday

    Time Temperature Precipitation Wind Pressure Humidity
    00:00 -5°C° 0.1 mm 0 mps 650 mmHg 97%
    01:00 -6°C° 0.1 mm 0 mps 650 mmHg 96%
    02:00 -6°C° 0 mm 0 mps 650 mmHg 96%
    03:00 -6°C° 0 mm 0 mps 651 mmHg 95%
    04:00 -7°C° 0 mm 0 mps 651 mmHg 94%
    05:00 -7°C° 0 mm 0 mps 651 mmHg 94%
    06:00 -7°C° 0 mm 1 mps 651 mmHg 93%
    07:00 -8°C° 0 mm 1 mps 652 mmHg 92%
    08:00 -7°C° 0 mm 1 mps 652 mmHg 92%
    09:00 -6°C° 0 mm 1 mps 652 mmHg 91%
    10:00 -6°C° 0 mm 1 mps 653 mmHg 90%
    11:00 -4°C° 0 mm 1 mps 653 mmHg 90%
    12:00 -3°C° 0 mm 1 mps 653 mmHg 90%
    13:00 -3°C° 0 mm 0 mps 653 mmHg 90%
    14:00 -4°C° 0 mm 0 mps 653 mmHg 92%
    15:00 -4°C° 0 mm 0 mps 653 mmHg 93%
    16:00 -4°C° 0 mm 1 mps 653 mmHg 95%
    17:00 -4°C° 0 mm 1 mps 653 mmHg 95%
    18:00 -6°C° 0 mm 1 mps 654 mmHg 94%
    19:00 -6°C° 0 mm 1 mps 654 mmHg 93%
    20:00 -6°C° 0 mm 1 mps 654 mmHg 92%
    21:00 -6°C° 0 mm 1 mps 654 mmHg 91%
    22:00 -6°C° 0 mm 1 mps 654 mmHg 89%
    23:00 -6°C° 0.1 mm 1 mps 654 mmHg 90%

    20 December, Wednesday

    Time Temperature Precipitation Wind Pressure Humidity
    00:00 -4°C° 0.1 mm 1 mps 654 mmHg 90%
    01:00 -4°C° 0.1 mm 1 mps 653 mmHg 90%
    02:00 -4°C° 0.5 mm 1 mps 653 mmHg 92%
    03:00 -3°C° 0.5 mm 1 mps 653 mmHg 93%
    04:00 -3°C° 0.5 mm 1 mps 653 mmHg 95%
    05:00 -3°C° 0.6 mm 1 mps 653 mmHg 95%
    06:00 -3°C° 0.6 mm 1 mps 654 mmHg 95%
    07:00 -3°C° 0.6 mm 1 mps 654 mmHg 95%
    08:00 -2°C° 0.2 mm 1 mps 654 mmHg 94%
    09:00 -2°C° 0.2 mm 1 mps 654 mmHg 94%
    10:00 -1°C° 0.2 mm 1 mps 654 mmHg 94%
    11:00 -1°C° 0 mm 1 mps 654 mmHg 95%
    12:00 -1°C° 0 mm 1 mps 654 mmHg 97%
    13:00 0°C° 0 mm 1 mps 654 mmHg 98%
    14:00 0°C° 0 mm 1 mps 654 mmHg 97%
    15:00 -1°C° 0 mm 1 mps 654 mmHg 97%
    16:00 -1°C° 0 mm 1 mps 654 mmHg 96%
    17:00 -1°C° 0.1 mm 1 mps 654 mmHg 95%
    18:00 -1°C° 0.1 mm 1 mps 655 mmHg 95%
    19:00 -1°C° 0.1 mm 1 mps 655 mmHg 94%
    20:00 -1°C° 0.1 mm 1 mps 655 mmHg 94%
    21:00 -1°C° 0.1 mm 1 mps 655 mmHg 94%
    22:00 -1°C° 0.1 mm 1 mps 655 mmHg 94%
    23:00 -1°C° 0.1 mm 1 mps 655 mmHg 94%

    21 December, Thursday

    Time Temperature Precipitation Wind Pressure Humidity
    00:00 -1°C° 0.1 mm 1 mps 655 mmHg 95%
    01:00 -1°C° 0.1 mm 1 mps 655 mmHg 95%
    02:00 -1°C° 0.1 mm 1 mps 655 mmHg 95%
    03:00 -1°C° 0.1 mm 1 mps 655 mmHg 95%
    04:00 -1°C° 0.1 mm 1 mps 655 mmHg 96%
    05:00 0°C° 0 mm 1 mps 655 mmHg 96%
    06:00 0°C° 0 mm 1 mps 655 mmHg 96%
    07:00 0°C° 0 mm 1 mps 655 mmHg 96%
    08:00 0°C° 0 mm 1 mps 655 mmHg 96%
    09:00 0°C° 0 mm 1 mps 655 mmHg 97%
    10:00 +1°C° 0 mm 1 mps 656 mmHg 98%
    11:00 +1°C° 0 mm 1 mps 655 mmHg 98%
    12:00 +1°C° 0 mm 1 mps 655 mmHg 99%
    13:00 +2°C° 0 mm 1 mps 655 mmHg 99%
    14:00 +1°C° 0 mm 1 mps 655 mmHg 99%
    15:00 +1°C° 0 mm 1 mps 655 mmHg 98%
    16:00 +1°C° 0 mm 1 mps 654 mmHg 98%
    17:00 +1°C° 0 mm 1 mps 654 mmHg 97%
    18:00 0°C° 0 mm 1 mps 654 mmHg 95%
    19:00 0°C° 0 mm 1 mps 654 mmHg 94%
    20:00 0°C° 0 mm 1 mps 654 mmHg 93%
    21:00 -1°C° 0 mm 1 mps 654 mmHg 92%
    22:00 -1°C° 0 mm 1 mps 654 mmHg 91%
    23:00 -1°C° 0 mm 1 mps 654 mmHg 91%
    Show more